N236VA ANYN-PTPN

Flight info

Callsign N236VA
Flight time N/A
Altitude FL280
Route
Aircraft E55P/M-G/N

Departure

Time N/A
Airport Nauru International Airport (ANYN)

Arrival

Time 2026-04-19 20:53
Airport Pohnpei International Airport (PTPN)
Time Latitude Longitude Altitude Speed Heading
2026-04-19 19:49 3.58204 162.17184 25847 ft 435 kts 312°
2026-04-19 19:50 3.60237 162.14836 25847 ft 434 kts 311°
2026-04-19 19:50 3.62235 162.12529 25847 ft 434 kts 312°
2026-04-19 19:50 3.64210 162.10248 25847 ft 434 kts 312°
2026-04-19 19:50 3.66191 162.07960 25847 ft 434 kts 312°
2026-04-19 19:51 3.68171 162.05673 25847 ft 434 kts 312°
2026-04-19 19:51 3.70145 162.03393 25847 ft 434 kts 312°
2026-04-19 19:51 3.72122 162.01110 25850 ft 434 kts 312°
2026-04-19 19:51 3.74111 161.98811 25847 ft 434 kts 312°
2026-04-19 19:52 3.76090 161.96525 25851 ft 434 kts 312°
2026-04-19 19:52 3.78067 161.94241 25849 ft 434 kts 312°
2026-04-19 19:52 3.80044 161.91955 25847 ft 434 kts 312°
2026-04-19 19:52 3.82019 161.89672 25850 ft 434 kts 312°
2026-04-19 19:53 3.84067 161.87304 25849 ft 434 kts 312°
2026-04-19 19:53 3.86046 161.85017 25850 ft 433 kts 312°
2026-04-19 19:53 3.88075 161.82673 25849 ft 434 kts 312°
2026-04-19 19:53 3.90088 161.80346 25850 ft 433 kts 312°
2026-04-19 19:54 3.92110 161.78008 25849 ft 433 kts 312°
2026-04-19 19:54 3.94124 161.75680 25851 ft 433 kts 312°
2026-04-19 19:54 3.96145 161.73342 25851 ft 433 kts 312°
2026-04-19 19:54 3.98154 161.71020 25852 ft 433 kts 312°
2026-04-19 19:55 4.00173 161.68684 25851 ft 433 kts 311°
2026-04-19 19:55 4.02192 161.66349 25851 ft 433 kts 311°
2026-04-19 19:55 4.04211 161.64011 25850 ft 432 kts 311°
2026-04-19 19:55 4.06238 161.61669 25851 ft 432 kts 311°
2026-04-19 19:56 4.08259 161.59330 25851 ft 432 kts 311°
2026-04-19 19:56 4.10261 161.57014 25852 ft 432 kts 312°
2026-04-19 19:56 4.12224 161.54740 25853 ft 432 kts 312°
2026-04-19 19:56 4.14147 161.52517 25853 ft 432 kts 312°
2026-04-19 19:57 4.16125 161.50228 25853 ft 432 kts 312°
2026-04-19 19:57 4.18125 161.47912 25855 ft 432 kts 312°
2026-04-19 19:57 4.20120 161.45604 25858 ft 432 kts 312°
2026-04-19 19:57 4.22118 161.43289 25857 ft 432 kts 312°
2026-04-19 19:58 4.24097 161.40999 25858 ft 433 kts 312°
2026-04-19 19:58 4.26092 161.38690 25854 ft 433 kts 312°
2026-04-19 19:58 4.28076 161.36393 25852 ft 434 kts 312°
2026-04-19 19:58 4.30085 161.34067 25842 ft 434 kts 311°
2026-04-19 19:59 4.32064 161.31774 25835 ft 434 kts 311°
2026-04-19 19:59 4.34049 161.29476 25833 ft 434 kts 311°
2026-04-19 19:59 4.36030 161.27180 25836 ft 433 kts 311°
2026-04-19 19:59 4.38005 161.24892 25842 ft 433 kts 312°
2026-04-19 20:00 4.39993 161.22589 25844 ft 433 kts 311°
2026-04-19 20:00 4.41979 161.20290 25847 ft 432 kts 311°
2026-04-19 20:00 4.43976 161.17973 25849 ft 432 kts 311°
2026-04-19 20:00 4.45949 161.15689 25849 ft 432 kts 311°
2026-04-19 20:01 4.47943 161.13378 25846 ft 432 kts 311°
2026-04-19 20:01 4.49904 161.11106 25847 ft 432 kts 311°
2026-04-19 20:01 4.51880 161.08815 25848 ft 433 kts 311°
2026-04-19 20:01 4.53864 161.06513 25848 ft 433 kts 311°
2026-04-19 20:02 4.55841 161.04222 25849 ft 434 kts 311°
2026-04-19 20:02 4.57823 161.01923 25848 ft 434 kts 311°
2026-04-19 20:02 4.59802 160.99631 25849 ft 434 kts 311°
2026-04-19 20:02 4.61772 160.97345 25848 ft 434 kts 311°
2026-04-19 20:03 4.63767 160.95030 25850 ft 434 kts 311°
2026-04-19 20:03 4.65769 160.92708 25850 ft 434 kts 311°
2026-04-19 20:03 4.67757 160.90402 25849 ft 434 kts 311°
2026-04-19 20:03 4.69756 160.88084 25850 ft 434 kts 311°
2026-04-19 20:04 4.71786 160.85728 25850 ft 434 kts 311°
2026-04-19 20:04 4.73797 160.83396 25849 ft 435 kts 311°
2026-04-19 20:04 4.75808 160.81060 25850 ft 435 kts 311°
2026-04-19 20:04 4.76478 160.80284 25851 ft 435 kts 311°
2026-04-19 20:05 4.78478 160.77963 25850 ft 435 kts 311°
2026-04-19 20:05 4.80511 160.75603 25851 ft 435 kts 311°
2026-04-19 20:05 4.82523 160.73267 25850 ft 436 kts 311°
2026-04-19 20:05 4.84528 160.70940 25851 ft 437 kts 311°
2026-04-19 20:06 4.86518 160.68628 25852 ft 437 kts 311°
2026-04-19 20:06 4.88526 160.66298 25851 ft 437 kts 311°
2026-04-19 20:06 4.90513 160.63990 25851 ft 437 kts 311°
2026-04-19 20:06 4.92500 160.61683 25851 ft 437 kts 311°
2026-04-19 20:07 4.94486 160.59376 25851 ft 437 kts 311°
2026-04-19 20:07 4.96499 160.57038 25852 ft 437 kts 311°
2026-04-19 20:07 4.98490 160.54725 25851 ft 437 kts 311°
2026-04-19 20:07 5.00506 160.52381 25851 ft 437 kts 311°
2026-04-19 20:08 5.02521 160.50042 25852 ft 437 kts 311°
2026-04-19 20:08 5.04508 160.47731 25852 ft 437 kts 311°
2026-04-19 20:08 5.06504 160.45399 25852 ft 438 kts 311°
2026-04-19 20:08 5.08487 160.43083 25852 ft 438 kts 311°
2026-04-19 20:09 5.10468 160.40767 25852 ft 438 kts 311°
2026-04-19 20:09 5.12452 160.38447 25851 ft 438 kts 311°
2026-04-19 20:09 5.14436 160.36130 25852 ft 438 kts 311°
2026-04-19 20:09 5.16447 160.33779 25849 ft 438 kts 311°
2026-04-19 20:10 5.18432 160.31459 25848 ft 438 kts 311°
2026-04-19 20:10 5.20415 160.29140 25847 ft 438 kts 311°
2026-04-19 20:10 5.22399 160.26820 25850 ft 438 kts 311°
2026-04-19 20:10 5.24389 160.24494 25850 ft 439 kts 311°
2026-04-19 20:11 5.26382 160.22162 25852 ft 439 kts 311°
2026-04-19 20:11 5.28371 160.19835 25854 ft 440 kts 311°
2026-04-19 20:11 5.30378 160.17487 25854 ft 440 kts 311°
2026-04-19 20:11 5.32369 160.15158 25856 ft 440 kts 311°
2026-04-19 20:12 5.34386 160.12797 25856 ft 441 kts 311°
2026-04-19 20:12 5.36426 160.10412 25857 ft 441 kts 311°
2026-04-19 20:12 5.38421 160.08077 25855 ft 440 kts 311°
2026-04-19 20:12 5.40410 160.05747 25858 ft 440 kts 311°
2026-04-19 20:13 5.42402 160.03417 25859 ft 440 kts 311°
2026-04-19 20:13 5.44404 160.01072 25858 ft 440 kts 311°
2026-04-19 20:13 5.46398 159.98738 25857 ft 439 kts 311°
2026-04-19 20:13 5.48384 159.96411 25859 ft 440 kts 311°
2026-04-19 20:14 5.50372 159.94083 25860 ft 440 kts 311°
2026-04-19 20:14 5.52365 159.91749 25862 ft 439 kts 311°
2026-04-19 20:14 5.54353 159.89421 25861 ft 440 kts 311°
2026-04-19 20:14 5.56337 159.87096 25866 ft 439 kts 311°
2026-04-19 20:15 5.58338 159.84751 25868 ft 439 kts 311°
2026-04-19 20:15 5.60325 159.82424 25871 ft 439 kts 311°
2026-04-19 20:15 5.62310 159.80098 25871 ft 439 kts 311°
2026-04-19 20:15 5.64292 159.77773 25872 ft 439 kts 311°
2026-04-19 20:16 5.66283 159.75442 25874 ft 439 kts 311°
2026-04-19 20:16 5.68268 159.73113 25873 ft 439 kts 311°
2026-04-19 20:16 5.70251 159.70787 25874 ft 439 kts 311°
2026-04-19 20:16 5.72248 159.68446 25872 ft 439 kts 311°
2026-04-19 20:17 5.74175 159.66187 25873 ft 439 kts 311°
2026-04-19 20:17 5.76209 159.63801 25874 ft 439 kts 311°
2026-04-19 20:17 5.77979 159.61726 25873 ft 439 kts 311°
2026-04-19 20:17 5.79985 159.59372 25874 ft 439 kts 311°
2026-04-19 20:18 5.82002 159.57004 25873 ft 439 kts 311°
2026-04-19 20:18 5.84002 159.54657 25876 ft 439 kts 311°
2026-04-19 20:18 5.85954 159.52367 25752 ft 425 kts 311°
2026-04-19 20:18 5.87851 159.50140 25450 ft 415 kts 311°
2026-04-19 20:19 5.89719 159.47948 25152 ft 406 kts 311°
2026-04-19 20:19 5.91533 159.45817 24857 ft 399 kts 311°
2026-04-19 20:19 5.93320 159.43720 24561 ft 392 kts 311°
2026-04-19 20:19 5.95077 159.41658 24264 ft 386 kts 311°
2026-04-19 20:20 5.96806 159.39626 23970 ft 380 kts 311°
2026-04-19 20:20 5.98513 159.37622 23678 ft 375 kts 311°
2026-04-19 20:20 6.00198 159.35642 23386 ft 371 kts 311°
2026-04-19 20:20 6.01882 159.33663 23090 ft 367 kts 311°
2026-04-19 20:21 6.03536 159.31718 22792 ft 364 kts 312°
2026-04-19 20:21 6.05175 159.29794 22497 ft 360 kts 311°
2026-04-19 20:21 6.06794 159.27893 22207 ft 357 kts 311°
2026-04-19 20:21 6.08401 159.26005 21925 ft 354 kts 312°
2026-04-19 20:22 6.09995 159.24130 21643 ft 352 kts 312°
2026-04-19 20:22 6.11582 159.22265 21359 ft 349 kts 312°
2026-04-19 20:22 6.13165 159.20405 21076 ft 347 kts 312°
2026-04-19 20:22 6.14727 159.18565 20792 ft 345 kts 312°
2026-04-19 20:23 6.16280 159.16740 20510 ft 343 kts 312°
2026-04-19 20:23 6.17827 159.14924 20230 ft 340 kts 312°
2026-04-19 20:23 6.19357 159.13124 19946 ft 338 kts 312°
2026-04-19 20:23 6.20881 159.11329 19665 ft 337 kts 313°
2026-04-19 20:24 6.22396 159.09547 19385 ft 335 kts 312°
2026-04-19 20:24 6.23918 159.07754 19099 ft 333 kts 313°
2026-04-19 20:24 6.25423 159.05988 18819 ft 331 kts 313°
2026-04-19 20:24 6.26916 159.04232 18537 ft 329 kts 313°
2026-04-19 20:25 6.28399 159.02487 18254 ft 327 kts 313°
2026-04-19 20:25 6.29871 159.00752 17972 ft 326 kts 313°
2026-04-19 20:25 6.31338 158.99029 17690 ft 324 kts 313°
2026-04-19 20:25 6.32801 158.97302 17407 ft 323 kts 313°
2026-04-19 20:26 6.34265 158.95584 17126 ft 321 kts 313°
2026-04-19 20:26 6.35713 158.93877 16848 ft 320 kts 313°
2026-04-19 20:26 6.37151 158.92184 16571 ft 318 kts 313°
2026-04-19 20:26 6.38579 158.90498 16289 ft 316 kts 313°
2026-04-19 20:27 6.40004 158.88823 16010 ft 314 kts 314°
2026-04-19 20:27 6.41424 158.87149 15732 ft 312 kts 314°
2026-04-19 20:27 6.42830 158.85497 15453 ft 311 kts 314°
2026-04-19 20:27 6.44238 158.83838 15172 ft 309 kts 313°
2026-04-19 20:28 6.45630 158.82198 14890 ft 307 kts 314°
2026-04-19 20:28 6.47014 158.80569 14610 ft 305 kts 314°
2026-04-19 20:28 6.48387 158.78948 14330 ft 303 kts 314°
2026-04-19 20:28 6.49753 158.77340 14048 ft 302 kts 314°
2026-04-19 20:29 6.51124 158.75728 13764 ft 300 kts 313°
2026-04-19 20:29 6.52474 158.74137 13482 ft 298 kts 313°
2026-04-19 20:29 6.53822 158.72546 13198 ft 296 kts 313°
2026-04-19 20:30 6.56487 158.69404 12629 ft 292 kts 313°
2026-04-19 20:30 6.57806 158.67849 12346 ft 291 kts 313°
2026-04-19 20:30 6.59113 158.66309 12063 ft 289 kts 313°
2026-04-19 20:30 6.60413 158.64774 11780 ft 287 kts 313°
2026-04-19 20:31 6.61708 158.63251 11498 ft 285 kts 313°
2026-04-19 20:31 6.63003 158.61723 11209 ft 284 kts 313°
2026-04-19 20:31 6.64280 158.60215 10920 ft 282 kts 313°
2026-04-19 20:31 6.65547 158.58714 10632 ft 281 kts 311°
2026-04-19 20:32 6.66565 158.57038 10347 ft 281 kts 301°
2026-04-19 20:32 6.67519 158.55334 10059 ft 279 kts 302°
2026-04-19 20:32 6.68471 158.53637 9772 ft 277 kts 302°
2026-04-19 20:32 6.69418 158.51959 9487 ft 276 kts 302°
2026-04-19 20:33 6.70370 158.50274 9196 ft 274 kts 302°
2026-04-19 20:33 6.71309 158.48612 8909 ft 273 kts 302°
2026-04-19 20:33 6.72242 158.46957 8621 ft 271 kts 302°
2026-04-19 20:33 6.73169 158.45312 8333 ft 270 kts 302°
2026-04-19 20:34 6.74099 158.43670 8045 ft 269 kts 302°
2026-04-19 20:34 6.75019 158.42034 7758 ft 268 kts 302°
2026-04-19 20:34 6.75939 158.40405 7472 ft 267 kts 301°
2026-04-19 20:34 6.76862 158.38769 7183 ft 267 kts 301°
2026-04-19 20:35 6.77775 158.37150 6896 ft 266 kts 301°
2026-04-19 20:35 6.78685 158.35537 6609 ft 265 kts 301°
2026-04-19 20:35 6.79594 158.33929 6317 ft 264 kts 301°
2026-04-19 20:35 6.80495 158.32327 6029 ft 263 kts 301°
2026-04-19 20:36 6.81396 158.30729 5735 ft 262 kts 301°
2026-04-19 20:36 6.82292 158.29138 5447 ft 261 kts 301°
2026-04-19 20:36 6.83199 158.27531 5158 ft 261 kts 301°
2026-04-19 20:36 6.84089 158.25950 4867 ft 260 kts 301°
2026-04-19 20:37 6.84979 158.24373 4586 ft 258 kts 301°
2026-04-19 20:37 6.86743 158.21243 3996 ft 250 kts 301°
2026-04-19 20:37 6.87595 158.19732 3872 ft 239 kts 301°
2026-04-19 20:38 6.88391 158.18310 3848 ft 226 kts 301°
2026-04-19 20:38 6.89155 158.16959 3843 ft 213 kts 301°
2026-04-19 20:38 6.89868 158.15693 3842 ft 202 kts 301°
2026-04-19 20:38 6.90545 158.14489 3841 ft 192 kts 301°
2026-04-19 20:39 6.91189 158.13345 3841 ft 183 kts 301°
2026-04-19 20:39 6.91807 158.12251 3845 ft 175 kts 301°
2026-04-19 20:39 6.92387 158.11220 3898 ft 167 kts 301°
2026-04-19 20:39 6.92962 158.10197 3861 ft 168 kts 301°
2026-04-19 20:40 6.93543 158.09171 3857 ft 166 kts 301°
2026-04-19 20:40 6.94111 158.08160 3856 ft 165 kts 301°
2026-04-19 20:40 6.94671 158.07162 3852 ft 163 kts 301°
2026-04-19 20:40 6.95230 158.06169 3851 ft 162 kts 301°
2026-04-19 20:41 6.95783 158.05190 3853 ft 160 kts 301°
2026-04-19 20:41 6.96332 158.04213 3850 ft 159 kts 301°
2026-04-19 20:41 6.96873 158.03249 3851 ft 158 kts 302°
2026-04-19 20:41 6.97419 158.02280 3849 ft 157 kts 302°
2026-04-19 20:42 6.97957 158.01326 3848 ft 156 kts 302°
2026-04-19 20:42 6.98492 158.00371 3847 ft 155 kts 298°
2026-04-19 20:42 6.98660 157.99310 3855 ft 156 kts 268°
2026-04-19 20:42 6.98607 157.98194 3746 ft 163 kts 269°
2026-04-19 20:43 6.98557 157.97033 3638 ft 169 kts 268°
2026-04-19 20:43 6.98506 157.95833 3530 ft 174 kts 269°
2026-04-19 20:43 6.98452 157.94588 3420 ft 178 kts 268°
2026-04-19 20:43 6.98398 157.93335 3345 ft 177 kts 268°
2026-04-19 20:44 6.98297 157.92109 3223 ft 177 kts 256°
2026-04-19 20:44 6.97575 157.91136 3082 ft 177 kts 212°
2026-04-19 20:44 6.96404 157.90919 2958 ft 172 kts 167°
2026-04-19 20:44 6.95456 157.91548 2923 ft 160 kts 122°
2026-04-19 20:45 6.95253 157.92577 2919 ft 149 kts 77°
2026-04-19 20:45 6.95718 157.93473 2924 ft 136 kts 57°
2026-04-19 20:45 6.96234 157.94317 2955 ft 144 kts 58°
2026-04-19 20:45 6.96738 157.95144 2926 ft 133 kts 58°
2026-04-19 20:46 6.97204 157.95907 2932 ft 121 kts 58°
2026-04-19 20:46 6.97671 157.96672 2981 ft 138 kts 58°
2026-04-19 20:46 6.98083 157.97550 2957 ft 136 kts 72°
2026-04-19 20:46 6.98284 157.98447 2934 ft 126 kts 79°
2026-04-19 20:47 6.98393 157.99296 2934 ft 117 kts 83°
2026-04-19 20:47 6.98457 158.00091 2933 ft 113 kts 84°
2026-04-19 20:47 6.98492 158.00947 2997 ft 123 kts 87°
2026-04-19 20:47 6.98510 158.01815 2951 ft 125 kts 88°
2026-04-19 20:48 6.98520 158.02709 2959 ft 127 kts 88°
2026-04-19 20:48 6.98527 158.03592 2949 ft 125 kts 88°
2026-04-19 20:48 6.98533 158.04459 2907 ft 126 kts 88°
2026-04-19 20:48 6.98538 158.05359 2773 ft 130 kts 88°
2026-04-19 20:49 6.98543 158.06270 2615 ft 131 kts 88°
2026-04-19 20:49 6.98546 158.07191 2450 ft 132 kts 89°
2026-04-19 20:49 6.98550 158.08124 2281 ft 133 kts 88°
2026-04-19 20:49 6.98555 158.09048 2104 ft 131 kts 89°
2026-04-19 20:50 6.98558 158.09961 1933 ft 130 kts 89°
2026-04-19 20:50 6.98556 158.10860 1771 ft 127 kts 89°
2026-04-19 20:50 6.98552 158.11746 1601 ft 126 kts 89°
2026-04-19 20:50 6.98548 158.12631 1430 ft 126 kts 89°
2026-04-19 20:51 6.98543 158.13503 1265 ft 124 kts 89°
2026-04-19 20:51 6.98540 158.14375 1096 ft 123 kts 89°
2026-04-19 20:51 6.98536 158.15234 931 ft 122 kts 89°
2026-04-19 20:51 6.98532 158.16084 768 ft 121 kts 89°
2026-04-19 20:52 6.98528 158.16929 606 ft 120 kts 88°
2026-04-19 20:52 6.98524 158.17766 445 ft 119 kts 88°
2026-04-19 20:52 6.98521 158.18603 289 ft 121 kts 88°
2026-04-19 20:52 6.98517 158.19456 132 ft 123 kts 88°
2026-04-19 20:53 6.98514 158.20324 11 ft 119 kts 89°
2026-04-19 20:53 6.98510 158.20971 11 ft 50 kts 89°
2026-04-19 20:53 6.98497 158.21218 13 ft 33 kts 102°
2026-04-19 20:53 6.98512 158.21229 13 ft 12 kts 266°
2026-04-19 20:54 6.98513 158.21115 12 ft 20 kts 271°
2026-04-19 20:54 6.98513 158.20947 11 ft 28 kts 269°
2026-04-19 20:54 6.98513 158.20741 10 ft 30 kts 270°
2026-04-19 20:54 6.98516 158.20536 10 ft 21 kts 268°
2026-04-19 20:55 6.98513 158.20454 10 ft 9 kts 270°
2026-04-19 20:55 6.98508 158.20386 10 ft 11 kts 247°
2026-04-19 20:55 6.98438 158.20359 10 ft 13 kts 178°
2026-04-19 20:55 6.98344 158.20361 10 ft 14 kts 178°
2026-04-19 20:56 6.98298 158.20361 10 ft 0 kts 184°
2026-04-19 20:56 6.98297 158.20361 10 ft 0 kts 185°
2026-04-19 20:59 6.98285 158.20359 8 ft 5 kts 205°
2026-04-19 20:59 6.98260 158.20315 8 ft 9 kts 259°
2026-04-19 21:00 6.98280 158.20292 7 ft 1 kts 17°
2026-04-19 21:00 6.98287 158.20297 7 ft 0 kts 48°
2026-04-19 21:00 6.98288 158.20297 7 ft 0 kts 49°